Estación municipal de Roda de Ter (Osona, Plana de Vic)

Consulta los datos en tiempo real de la estación municipal de Roda de Ter





Hora UTC 06:00
Temperatura 16.1 ºC
Humedad 92.5 %
Pluja 0.0 mm
Velocidad viento 0.0 km/h
Dirección viento NNE

Webcam

Datos diarios 2026-09-04



Hora UTC (invierno +1h; verano +2h)
Temperatura (ºC) Humedad (%) Velocidad viento (km/h) Precipitación (mm)
Hora UTC Aire Humedad Vel. Dir. Vel. Max Dir. Intent. máx 5 min.
00:05 19.3 88.2 0.4 W 0.4 W 0.0
00:10 19.0 89.5 0.0 NNE 0.0 W 0.0
00:15 19.3 89.8 0.0 NNE 0.0 W 0.0
00:20 19.6 89.1 0.0 NNE 0.0 W 0.0
00:25 19.7 88.3 0.0 W 1.1 W 0.0
00:30 19.3 88.5 0.0 NNE 0.0 W 0.0
00:35 19.3 89.1 0.0 NNE 0.0 W 0.0
00:40 19.4 89.3 0.0 NNE 0.0 W 0.0
00:45 19.4 89.1 0.1 W 1.1 W 0.0
00:50 19.2 89.0 0.0 NNE 0.0 W 0.0
00:55 19.1 89.3 1.5 W 3.5 W 0.0
01:00 19.1 89.4 1.7 ESE 2.8 ESE 0.0
01:05 18.9 89.9 0.3 ESE 1.8 ESE 0.0
01:10 19.0 90.2 1.1 ESE 2.1 ESE 0.0
01:15 19.1 89.5 0.8 ESE 2.1 ESE 0.0
01:20 18.9 89.9 0.0 NNE 0.0 ESE 0.0
01:25 18.9 89.6 0.0 NNE 0.0 ESE 0.0
01:30 18.7 89.8 0.0 NNE 0.0 ESE 0.0
01:35 18.7 90.0 0.0 NNE 0.0 ESE 0.0
01:40 18.8 90.1 0.0 NNE 0.0 ESE 0.0
01:45 18.6 89.7 0.0 NNE 0.0 ESE 0.0
01:50 18.6 90.1 0.0 ESE 1.1 ESE 0.0
01:55 18.6 89.7 0.0 ESE 1.1 ESE 0.0
02:00 18.2 89.9 0.0 NNE 0.0 ESE 0.0
02:05 18.5 91.0 0.0 NNE 0.0 ESE 0.0
02:10 18.6 90.0 0.0 NNE 0.0 ESE 0.0
02:15 18.2 89.5 0.0 NNE 0.0 ESE 0.0
02:20 17.9 90.3 0.1 ESE 1.4 ESE 0.0
02:25 17.9 90.7 1.1 ESE 3.2 ESE 0.0
02:30 18.2 91.0 1.4 ESE 2.5 ESE 0.0
02:35 18.0 90.2 0.1 ESE 1.4 ESE 0.0
02:40 17.7 90.5 0.0 NNE 0.0 ESE 0.0
02:45 17.6 91.0 0.0 NNE 0.0 ESE 0.0
02:50 17.7 91.5 0.0 NNE 0.0 ESE 0.0
02:55 17.9 91.7 0.0 NNE 0.0 ESE 0.0
03:00 17.6 91.0 0.0 NNE 0.0 ESE 0.0
03:05 17.6 91.8 0.0 NNE 0.0 ESE 0.0
03:10 17.6 91.7 0.0 NNE 0.0 ESE 0.0
03:15 17.6 91.8 0.0 NNE 0.0 ESE 0.0
03:20 17.6 91.6 0.0 ESE 1.1 ESE 0.0
03:25 17.5 91.6 0.8 ESE 2.1 ESE 0.0
03:30 17.4 91.7 0.0 NNE 0.0 ESE 0.0
03:35 17.3 91.3 0.0 NNE 0.0 ESE 0.0
03:40 17.6 92.0 1.7 ESE 3.2 ESE 0.0
03:45 17.6 91.8 2.4 ESE 3.2 ESE 0.0
03:50 17.3 91.2 1.7 ESE 2.8 ESE 0.0
03:55 17.1 91.6 0.2 SE 2.1 SE 0.0
04:00 17.2 91.6 0.0 NNE 0.0 ESE 0.0
04:05 17.2 91.7 0.0 NNE 0.0 ESE 0.0
04:10 17.0 91.7 0.2 ESE 1.1 ESE 0.0
04:15 16.8 91.9 0.3 ESE 1.8 ESE 0.0
04:20 17.1 92.5 0.3 ESE 1.4 ESE 0.0
04:25 17.4 92.8 0.0 NNE 0.0 SE 0.0
04:30 17.5 92.7 0.0 NNE 0.0 SE 0.0
04:35 17.2 91.8 0.0 NNE 0.0 ESE 0.0
04:40 16.7 91.7 0.6 ESE 2.1 ESE 0.0
04:45 16.6 92.1 1.2 ESE 2.1 ESE 0.0
04:50 16.6 92.4 0.7 ESE 1.8 ESE 0.0
04:55 16.7 92.1 0.3 ESE 2.1 ESE 0.0
05:00 16.6 91.9 0.0 NNE 0.0 ESE 0.0
05:05 16.6 92.2 0.2 ESE 1.1 ESE 0.0
05:10 16.4 92.3 0.0 NNE 0.0 ESE 0.0
05:15 16.4 92.6 0.0 NNE 0.0 ESE 0.0
05:20 16.3 92.6 0.0 NNE 0.0 ESE 0.0
05:25 16.4 92.8 0.0 NNE 0.0 ESE 0.0
05:30 16.4 92.8 0.0 NNE 0.0 ESE 0.0
05:35 16.4 92.6 0.0 ESE 1.1 ESE 0.0
05:40 16.2 92.3 0.0 NNE 0.0 ESE 0.0
05:45 16.3 92.4 0.0 NNE 0.0 ESE 0.0
05:50 16.3 92.1 0.0 NNE 0.0 ESE 0.0
05:55 16.0 92.1 0.0 NNE 0.0 ESE 0.0
06:00 16.1 92.5 0.0 NNE 0.0 ESE 0.0
Máxima 19.7 92.8 2.4 ESE 3.5 W 0.0
Mínima 16.0 88.2
Total 0.0